THOR ABLESTAR DEB *, 48812

Orbit data source: Space-Track

THOR ABLESTAR DEB *, 48812 is space debris in LEO originally from a launch on Thu, 29 Jun 1961 UTC launched from the Air Force Eastern Test Range (AFETR). Debris objects in space refer to the collection of defunct objects orbiting the Earth. Examples of debris include non-operational satellites, rocket bodies, and fragments generated from explosions, collisions, or faulty payload assembly.

Loading next visibility...
Identifier
48812, 1961-015MQ
Orbit
LEO
Country
Flag of USUS
Related business
Manufacturer
Unknown
Mission
Spacecraft
Bus & Motor
Unknown
Mass
Unknown
Launch date (UTC)
1961-06-29 (65 years ago)
Launch vehicle
Unknown
Launch site
Air Force Eastern Test Range (AFETR)
Object type
Payload
Rocket body
Debris
Shape & HBR
Unknown shape, 0.1 m
Radar Cross Section
Medium (>0.1 m² and <1 m²)

Expand to show TLE details & history
Last TLE update: 8 hours ago

TLE from 8 hours ago
0 THOR ABLESTAR DEB *
1 48812U 61015MQ  26264.50953487  .00000262  00000-0  17760-2 0  9990
2 48812  67.3194 356.0953 0354320 309.6050  47.4163 12.43857690585105
Epoch: 2026-09-21T12:13Z
TLE epoch observation values (Epoch: 2026-09-21T12:13:43.812Z)
Latitude
-0.00001°
Longitude
172.27441°
Altitude
1,309.146 km
Speed
7.286 km/s
True Right ascension
23h 44m 22s
True Declination
0° 00' 00"
Sunlit
Object was in full shadow at epoch
Visualization orbit readout
Latitude
Unknown
Longitude
Unknown
Altitude
Unknown
Speed
Unknown
Apparent Right ascension
Unknown
Apparent Declination
Unknown
Sunlit
N/A
Visualization observer readout
Local Sidereal Time
13:29:15
Azimuth
Unknown
Elevation
Unknown
Doppler factor
Unknown
Orbital elements
Apogee altitude
1,767.483 km
Perigee altitude
1,210.005 km
Semi-major axis
7,866.881 km
Eccentricity
0.03543
Inclination
67.3194°
RAAN
356.0953°
Arg. of periapsis
309.605°
True anomaly
50.49654°
Mean anomaly
47.4163°
Eccentric anomaly
48.94721°
Mean motion
3.11057 °/min
Orbital period
115.73 mins
BSTAR
0.001776
Loading maneuver chart data...
Computing Atmospheric mass density...

Documentation

Showing up to 5 results
|